Location: Brantley
(31.5822°N, 86.2569°W)
Time: 07:24:06
(UTC+00:00)

Courier 1B Rocket - Pass Details

Date: 25 February 2026
Orbit: 920 x 1201 km, 28.2° (Epoch: 9 March)

Event Time Altitude Azimuth Distance (km) Brightness Sun altitude
Rises 23:28:04 0° 263° (W) 3,624 11.3 1.7°
Reaches altitude 10° 23:30:46 10° 260° (W) 2,650 9.8 1.1°
Maximum altitude 23:37:02 66° 180° (S) 998 5.2 -0.2°
Drops below altitude 10° 23:43:11 10° 99° (E) 2,605 6.7 -1.5°
Enters shadow 23:45:32 - 96° (E) 3,459 7.2 -2.0°
Sets 23:45:49 0° 96° (E) 3,558 - -2.0°
